UAL2864 KIAH-KCLT

Flight info

Callsign UAL2864
Flight time N/A
Altitude 35000
Route LURIC8 ORRTH IZAAC Q30 VLKNN THRSR BESTT JONZE5
Aircraft B738/M-SDE2E3FGHIRWXY/LB1

Departure

Time 2026-04-30 22:53
Airport George Bush Intercontinental Airport (KIAH)

Arrival

Time N/A
Airport Charlotte Douglas International Airport (KCLT)
Time Latitude Longitude Altitude Speed Heading
2026-04-30 22:33 29.98816 -95.34285 106 ft 0 kts 180°
2026-04-30 22:35 29.98811 -95.34285 105 ft 0 kts 180°
2026-04-30 22:44 29.98831 -95.34284 105 ft 4 kts 191°
2026-04-30 22:45 29.98924 -95.34279 105 ft 4 kts 113°
2026-04-30 22:45 29.98918 -95.34334 105 ft 4 kts 37°
2026-04-30 22:46 29.98886 -95.34341 104 ft 0 kts
2026-04-30 22:49 29.98941 -95.34341 105 ft 7 kts
2026-04-30 22:49 29.99160 -95.34356 106 ft 12 kts 319°
2026-04-30 22:50 29.99177 -95.34791 106 ft 16 kts 270°
2026-04-30 22:51 29.99177 -95.35042 106 ft 15 kts 270°
2026-04-30 22:51 29.99177 -95.35272 106 ft 14 kts 270°
2026-04-30 22:52 29.99176 -95.35380 106 ft 13 kts 270°
2026-04-30 22:52 29.99286 -95.35485 106 ft 12 kts
2026-04-30 22:53 29.99341 -95.35209 107 ft 58 kts 90°
2026-04-30 22:53 29.99334 -95.33256 219 ft 172 kts 85°
2026-04-30 22:53 29.99386 -95.31807 872 ft 182 kts 85°
2026-04-30 22:54 30.00776 -95.29659 2591 ft 188 kts 22°
2026-04-30 22:55 30.05234 -95.27504 3826 ft 258 kts 17°
2026-04-30 22:55 30.08760 -95.26527 3976 ft 273 kts 11°
2026-04-30 22:56 30.12415 -95.25132 4293 ft 285 kts 41°
2026-04-30 22:56 30.16784 -95.20430 6837 ft 292 kts 37°
2026-04-30 22:57 30.20006 -95.17460 8241 ft 304 kts 36°
2026-04-30 22:57 30.23410 -95.14399 9657 ft 315 kts 35°
2026-04-30 22:58 30.27035 -95.11260 10530 ft 343 kts 32°
2026-04-30 22:59 30.33272 -95.06327 12108 ft 368 kts 31°
2026-04-30 22:59 30.39660 -95.01206 14126 ft 378 kts 30°